KE5KUL-13 Weather Reports


time (UTC)temp
F
wind
direction
speed
knots
gust
knots
rain 1hr
in
rain 24hr
in
rain mn
in
humidity
%
barometer
mb
20260906212018 95 203 4.3 11.3 0.00 0.00 0.00 31 1019.7
20260906211018 96 135 4.3 9.6 0.00 0.00 0.00 31 1020.0
20260906210018 97 113 4.3 9.6 0.00 0.00 0.00 31 1020.3
20260906205018 97 135 3.5 9.6 0.00 0.00 0.00 31 1020.3
20260906204018 98 135 4.3 8.7 0.00 0.00 0.00 31 1020.8
20260906203018 96 113 2.6 6.1 0.00 0.00 0.00 34 1020.6
20260906202018 94 158 5.2 9.6 0.00 0.00 0.00 34 1020.2
20260906201018 95 158 5.2 13.9 0.00 0.00 0.00 34 1020.3
20260906200018 96 158 3.5 7.8 0.00 0.00 0.00 34 1020.8
20260906195018 95 158 3.5 7.8 0.00 0.00 0.00 34 1020.8
20260906194018 96 135 2.6 7.0 0.00 0.00 0.00 33 1021.0
20260906193018 96 113 3.5 7.8 0.00 0.00 0.00 33 1021.2
20260906192018 95 225 3.5 7.0 0.00 0.00 0.00 34 1021.2
20260906191018 95 158 3.5 9.6 0.00 0.00 0.00 35 1021.3
20260906190018 95 135 3.5 7.8 0.00 0.00 0.00 35 1021.5
20260906185018 95 135 4.3 9.6 0.00 0.00 0.00 35 1021.6
20260906184018 93 113 3.5 8.7 0.00 0.00 0.00 37 1021.5
20260906183018 94 158 4.3 8.7 0.00 0.00 0.00 36 1021.9
20260906182018 95 158 5.2 10.4 0.00 0.00 0.00 36 1022.2
20260906181018 95 225 3.5 9.6 0.00 0.00 0.00 36 1022.4
20260906180018 94 158 4.3 8.7 0.00 0.00 0.00 38 1022.5
20260906175017 94 158 5.2 10.4 0.00 0.00 0.00 37 1022.6
20260906174017 93 158 4.3 10.4 0.00 0.00 0.00 39 1022.8
20260906173018 92 158 5.2 9.6 0.00 0.00 0.00 40 1022.6
20260906172018 92 158 4.3 12.2 0.00 0.00 0.00 41 1022.7
20260906171018 92 158 5.2 11.3 0.00 0.00 0.00 42 1023.0
20260906170018 92 158 3.5 9.6 0.00 0.00 0.00 42 1022.9
20260906165017 91 158 4.3 10.4 0.00 0.00 0.00 44 1022.8
20260906164017 91 158 4.3 11.3 0.00 0.00 0.00 43 1023.1
20260906163017 91 180 4.3 8.7 0.00 0.00 0.00 44 1023.1
20260906162018 91 158 5.2 11.3 0.00 0.00 0.00 43 1023.2
20260906161018 90 158 4.3 7.0 0.00 0.00 0.00 45 1022.9
20260906160017 89 158 3.5 7.8 0.00 0.00 0.00 46 1022.8
20260906155017 89 203 3.5 8.7 0.00 0.00 0.00 47 1022.7
20260906154017 88 158 3.5 8.7 0.00 0.00 0.00 48 1022.7
20260906153017 87 225 3.5 8.7 0.00 0.00 0.00 49 1022.9
20260906152017 88 180 4.3 9.6 0.00 0.00 0.00 49 1023.0
20260906151017 88 158 3.5 7.0 0.00 0.00 0.00 49 1023.0
20260906150017 87 180 3.5 7.8 0.00 0.00 0.00 50 1022.9
20260906145017 85 203 3.5 10.4 0.00 0.00 0.00 52 1022.7
20260906144017 83 225 3.5 7.8 0.00 0.00 0.00 54 1022.4
20260906143017 82 203 2.6 7.0 0.00 0.00 0.00 55 1022.4
20260906142017 81 180 2.6 7.0 0.00 0.00 0.00 56 1022.2
20260906141019 80 158 2.6 5.2 0.00 0.00 0.00 56 1022.0
20260906140018 79 180 2.6 7.0 0.00 0.00 0.00 57 1022.0
20260906135017 78 180 2.6 4.3 0.00 0.00 0.00 59 1021.5
20260906134017 77 158 0.9 2.6 0.00 0.00 0.00 61 1021.4
20260906133019 76 158 2.6 6.1 0.00 0.00 0.00 61 1021.2
20260906132017 76 135 2.6 7.8 0.00 0.00 0.00 61 1021.0
20260906131017 75 158 3.5 7.0 0.00 0.00 0.00 62 1021.1
20260906130017 75 158 2.6 5.2 0.00 0.00 0.00 62 1021.1
20260906125017 75 158 1.7 3.5 0.00 0.00 0.00 62 1021.2
20260906124017 75 158 1.7 2.6 0.00 0.00 0.00 62 1021.2
20260906123019 75 158 0.9 3.5 0.00 0.00 0.00 62 1021.1
20260906122019 75 135 0.9 3.5 0.00 0.00 0.00 62 1021.1
20260906121019 75 135 1.7 3.5 0.00 0.00 0.00 61 1020.9
20260906120019 75 158 2.6 5.2 0.00 0.00 0.00 61 1020.9
20260906115017 75 135 0.9 3.5 0.00 0.00 0.00 61 1020.9
20260906114019 75 135 0.9 2.6 0.00 0.00 0.00 60 1021.1
20260906113019 75 158 1.7 3.5 0.00 0.00 0.00 60 1021.2
20260906112017 75 158 1.7 3.5 0.00 0.00 0.00 60 1021.0
20260906111019 75 158 0.9 3.5 0.00 0.00 0.00 59 1021.2
20260906110019 76 158 1.7 3.5 0.00 0.00 0.00 59 1021.4
20260906105019 76 158 1.7 4.3 0.00 0.00 0.00 59 1021.4
20260906104019 76 158 0.9 1.7 0.00 0.00 0.00 59 1021.5
20260906103019 76 158 1.7 4.3 0.00 0.00 0.00 58 1021.4
20260906102019 76 158 2.6 5.2 0.00 0.00 0.00 58 1021.2
20260906101019 76 158 2.6 5.2 0.00 0.00 0.00 57 1021.2
20260906100018 77 158 2.6 4.3 0.00 0.00 0.00 57 1021.1
20260906095019 77 158 0.9 3.5 0.00 0.00 0.00 57 1021.4
20260906094019 77 158 1.7 4.3 0.00 0.00 0.00 57 1021.4
20260906093019 77 158 2.6 4.3 0.00 0.00 0.00 57 1021.2
20260906092018 77 158 1.7 4.3 0.00 0.00 0.00 56 1021.2
20260906091018 77 158 1.7 4.3 0.00 0.00 0.00 56 1021.4
20260906090019 78 158 2.6 5.2 0.00 0.00 0.00 55 1021.5
20260906085019 78 158 2.6 4.3 0.00 0.00 0.00 55 1021.7
20260906084019 78 158 1.7 5.2 0.00 0.00 0.00 54 1021.7
20260906083018 78 158 1.7 5.2 0.00 0.00 0.00 54 1021.7
20260906082018 78 158 1.7 5.2 0.00 0.00 0.00 54 1021.7
20260906081018 79 158 1.7 4.3 0.00 0.00 0.00 54 1021.7
20260906080019 79 158 1.7 5.2 0.00 0.00 0.00 54 1021.7
20260906075018 79 158 3.5 6.1 0.00 0.00 0.00 54 1021.7
20260906074018 79 158 2.6 6.1 0.00 0.00 0.00 54 1021.7
20260906073018 79 135 2.6 7.0 0.00 0.00 0.00 53 1021.4
20260906072018 79 158 2.6 5.2 0.00 0.00 0.00 53 1021.5
20260906071018 80 158 3.5 7.0 0.00 0.00 0.00 52 1021.6
20260906070018 80 180 2.6 7.8 0.00 0.00 0.00 52 1021.7
20260906065018 80 158 2.6 8.7 0.00 0.00 0.00 52 1021.7
20260906064018 80 158 3.5 9.6 0.00 0.00 0.00 51 1021.6
20260906063018 81 158 3.5 7.8 0.00 0.00 0.00 51 1021.6
20260906062019 81 158 3.5 7.8 0.00 0.00 0.00 51 1021.6
20260906061018 81 135 2.6 7.0 0.00 0.00 0.00 50 1021.5
20260906060018 82 135 4.3 9.6 0.00 0.00 0.00 49 1021.6
20260906055018 82 158 4.3 9.6 0.00 0.00 0.00 49 1021.4
20260906054018 83 158 2.6 7.0 0.00 0.00 0.00 48 1021.6
20260906053018 83 158 4.3 9.6 0.00 0.00 0.00 48 1021.4
20260906052018 83 135 4.3 12.2 0.00 0.00 0.00 47 1021.4
20260906051018 84 158 4.3 7.8 0.00 0.00 0.00 47 1021.3
20260906050018 84 158 3.5 9.6 0.00 0.00 0.00 46 1021.4
20260906045019 84 135 3.5 7.8 0.00 0.00 0.00 46 1021.4
20260906044019 85 158 3.5 7.8 0.00 0.00 0.00 46 1021.5
20260906043019 85 158 3.5 7.8 0.00 0.00 0.00 45 1021.1
20260906042017 85 158 2.6 7.8 0.00 0.00 0.00 44 1021.1
20260906041019 85 158 2.6 6.1 0.00 0.00 0.00 44 1020.8
20260906040019 86 158 3.5 7.0 0.00 0.00 0.00 43 1020.9
20260906035019 86 135 2.6 6.1 0.00 0.00 0.00 43 1020.9
20260906034017 86 135 3.5 6.1 0.00 0.00 0.00 42 1020.6
20260906033019 87 135 3.5 8.7 0.00 0.00 0.00 42 1020.9
20260906032019 87 135 3.5 7.8 0.00 0.00 0.00 42 1020.4
20260906031019 87 158 3.5 7.0 0.00 0.00 0.00 41 1020.2
20260906030017 87 158 4.3 9.6 0.00 0.00 0.00 42 1019.7
20260906025019 87 135 3.5 7.8 0.00 0.00 0.00 42 1019.4
20260906024019 88 135 4.3 7.8 0.00 0.00 0.00 40 1019.4
20260906023018 88 135 4.3 10.4 0.00 0.00 0.00 40 1019.1
20260906022019 88 135 3.5 7.8 0.00 0.00 0.00 40 1018.8
20260906021019 89 158 3.5 8.7 0.00 0.00 0.00 40 1019.1
20260906020019 89 158 2.6 6.1 0.00 0.00 0.00 40 1018.7
20260906015019 89 135 2.6 6.1 0.00 0.00 0.00 40 1018.5
20260906014018 89 135 2.6 6.1 0.00 0.00 0.00 40 1018.2
20260906013019 90 135 2.6 6.1 0.00 0.00 0.00 40 1018.1
20260906012019 90 135 3.5 6.1 0.00 0.00 0.00 39 1018.0
20260906011018 91 113 2.6 6.1 0.00 0.00 0.00 38 1018.1
20260906010018 91 113 3.5 7.0 0.00 0.00 0.00 38 1017.8
20260906005018 91 158 2.6 7.0 0.00 0.00 0.00 37 1017.8
20260906004018 92 135 3.5 7.8 0.00 0.00 0.00 36 1017.9
20260906003018 92 158 3.5 7.8 0.00 0.00 0.00 36 1017.8
20260906002019 93 158 4.3 9.6 0.00 0.00 0.00 36 1018.0
20260906001018 94 158 5.2 10.4 0.00 0.00 0.00 36 1018.1
20260906000019 94 135 3.5 7.0 0.00 0.00 0.00 34 1017.8
20260905235019 95 135 1.7 6.1 0.00 0.00 0.00 33 1017.4
20260905234019 95 135 3.5 10.4 0.00 0.00 0.00 33 1017.4
20260905233018 95 135 2.6 4.3 0.00 0.00 0.00 32 1017.1
20260905232018 96 135 3.5 9.6 0.00 0.00 0.00 31 1017.0
20260905231018 96 135 2.6 8.7 0.00 0.00 0.00 31 1017.2
20260905230018 97 180 3.5 7.8 0.00 0.00 0.00 30 1017.2
20260905225018 98 135 1.7 4.3 0.00 0.00 0.00 29 1017.4
20260905224018 99 135 4.3 9.6 0.00 0.00 0.00 29 1017.5
20260905223018 99 135 3.5 9.6 0.00 0.00 0.00 29 1017.7
20260905222018 99 135 4.3 10.4 0.00 0.00 0.00 31 1017.7
20260905221018 98 158 4.3 10.4 0.00 0.00 0.00 32 1017.6
20260905220018 98 158 5.2 13.0 0.00 0.00 0.00 31 1017.9
20260905215018 99 158 3.5 8.7 0.00 0.00 0.00 30 1017.9
20260905214018 99 113 4.3 9.6 0.00 0.00 0.00 31 1018.1
20260905213018 98 158 4.3 7.8 0.00 0.00 0.00 31 1018.2